Temp
-13 -13 -12 -13 -13 -14 -13 -13 -13 -13 -12 -13 -13 -12 -12 -11 -11 -11 -11 -11 -11 -11 -10 -10 -10 -10 -10 -10 -10 -10 -10 -10 -10 -9 -10 -10 -10 -10 -10 -10 -10 -10 -10 -10
-14 -12 -14 -15 -14 -14 -14 -13 -12 -12 -13 -14 -13 -13 -13 -12 -12 -11 -11 -11 -11 -10 -10 -10 -10 -10 -10 -10 -10 -10 -10 -10 -10 -10 -10 -10 -10 -9 -10 -10 -10 -10 -10 -10
-14 -14 -15 -15 -15 -14 -14 -13 -12 -12 -12 -13 -14 -13 -13 -12 -12 -12 -11 -11 -12 -11 -11 -11 -10 -10 -10 -10 -10 -10 -10 -10 -10 -10 -10 -10 -10 -10 -10 -10 -10 -10 -10 -10
-15 -15 -15 -15 -15 -15 -14 -14 -14 -13 -13 -13 -15 -14 -12 -12 -12 -12 -12 -12 -12 -12 -11 -11 -10 -10 -10 -10 -10 -11 -11 -11 -10 -10 -10 -10 -10 -10 -10 -10 -10 -10 -11 -11
-16 -16 -16 -16 -15 -16 -15 -15 -15 -15 -14 -16 -16 -16 -13 -13 -12 -12 -13 -13 -12 -12 -12 -12 -11 -11 -11 -11 -11 -10 -11 -10 -10 -10 -10 -10 -10 -11 -11 -11 -11 -11 -11 -11
-16 -16 -16 -16 -16 -16 -16 -16 -16 -15 -15 -16 -13 -13 -13 -12 -11 -13 -13 -13 -12 -13 -12 -12 -11 -11 -11 -11 -11 -11 -11 -11 -11 -11 -11 -11 -11 -11 -11 -11 -11 -11 -11 -11
-17 -17 -17 -17 -17 -17 -17 -16 -16 -16 -15 -13 -13 -14 -11 -12 -13 -14 -14 -14 -13 -13 -13 -12 -12 -12 -12 -12 -11 -12 -11 -12 -12 -12 -12 -12 -12 -11 -11 -11 -11 -11 -12 -12
-16 -17 -17 -17 -17 -17 -16 -16 -16 -15 -14 -13 -15 -13 -11 -12 -14 -14 -14 -14 -13 -13 -13 -13 -13 -12 -12 -12 -12 -12 -12 -12 -12 -12 -12 -12 -12 -12 -12 -12 -12 -12 -12 -12
-17 -17 -17 -17 -17 -17 -17 -17 -16 -16 -16 -16 -14 -13 -13 -13 -14 -14 -15 -14 -14 -15 -14 -13 -12 -12 -12 -12 -12 -12 -12 -12 -12 -12 -12 -12 -12 -13 -13 -12 -12 -12 -12 -12
-18 -17 -17 -17 -18 -17 -17 -16 -17 -17 -17 -16 -13 -13 -13 -13 -14 -15 -15 -14 -16 -16 -15 -14 -13 -13 -13 -13 -13 -13 -13 -13 -13 -13 -13 -13 -13 -13 -13 -13 -13 -13 -13 -13
-18 -18 -18 -18 -17 -17 -17 -17 -18 -18 -17 -16 -14 -13 -13 -14 -14 -15 -16 -16 -17 -16 -15 -14 -14 -14 -13 -13 -13 -13 -13 -13 -13 -13 -13 -13 -13 -13 -13 -13 -13 -13 -13 -13
-19 -19 -18 -18 -18 -18 -18 -17 -18 -18 -16 -15 -15 -13 -13 -14 -14 -15 -16 -16 -16 -16 -15 -16 -14 -13 -13 -14 -14 -14 -14 -13 -13 -13 -13 -14 -13 -13 -14 -14 -14 -14 -13 -13
-20 -19 -18 -18 -18 -18 -18 -18 -18 -19 -17 -17 -16 -13 -14 -15 -15 -16 -15 -16 -16 -16 -16 -15 -14 -14 -14 -14 -14 -14 -14 -14 -14 -14 -14 -14 -14 -14 -14 -14 -14 -14 -14 -14
-21 -20 -18 -18 -18 -18 -18 -18 -18 -18 -18 -16 -15 -15 -15 -15 -16 -16 -16 -16 -17 -16 -15 -15 -15 -15 -14 -15 -14 -14 -14 -14 -14 -14 -14 -14 -14 -14 -14 -14 -14 -14 -14 -14
-21 -20 -20 -19 -18 -19 -19 -19 -19 -18 -17 -17 -15 -15 -16 -16 -17 -17 -16 -16 -16 -16 -15 -15 -15 -15 -15 -15 -15 -15 -15 -14 -15 -14 -14 -15 -15 -14 -14 -14 -14 -14 -15 -15
-21 -21 -21 -20 -19 -19 -19 -19 -19 -18 -18 -17 -17 -16 -16 -17 -17 -17 -16 -17 -16 -16 -16 -16 -16 -15 -15 -15 -15 -15 -15 -15 -15 -15 -15 -15 -15 -14 -14 -14 -15 -15 -15 -15
-22 -21 -21 -20 -21 -21 -19 -18 -18 -18 -18 -17 -16 -15 -17 -17 -17 -16 -16 -17 -16 -16 -16 -16 -16 -16 -16 -16 -15 -15 -15 -15 -15 -15 -15 -15 -15 -15 -15 -15 -15 -15 -15 -16
-23 -22 -22 -21 -21 -22 -17 -19 -18 -18 -17 -17 -17 -17 -17 -17 -17 -17 -17 -16 -17 -16 -17 -16 -17 -16 -16 -16 -16 -15 -15 -15 -15 -15 -15 -15 -15 -15 -15 -15 -15 -15 -16 -16
-23 -23 -22 -22 -22 -21 -20 -18 -18 -18 -17 -17 -17 -17 -17 -17 -17 -16 -16 -16 -17 -17 -17 -17 -17 -17 -16 -15 -15 -16 -15 -15 -15 -15 -15 -15 -15 -15 -15 -15 -16 -16 -16 -16
-23 -23 -23 -22 -22 -21 -18 -18 -19 -19 -17 -17 -17 -17 -17 -17 -16 -15 -16 -16 -16 -16 -17 -17 -16 -16 -15 -16 -16 -16 -16 -16 -16 -16 -16 -16 -16 -16 -16 -16 -16 -16 -16 -16
-23 -23 -23 -23 -22 -20 -19 -19 -20 -20 -16 -17 -17 -18 -18 -17 -16 -17 -17 -17 -16 -16 -17 -16 -16 -16 -16 -16 -16 -16 -16 -16 -16 -16 -16 -16 -16 -16 -16 -16 -16 -17 -17 -17
-24 -24 -23 -23 -23 -21 -20 -20 -20 -18 -18 -18 -18 -19 -18 -18 -17 -17 -17 -17 -16 -16 -16 -16 -16 -17 -16 -16 -16 -16 -16 -16 -16 -16 -16 -16 -16 -17 -17 -17 -17 -17 -17 -17
-25 -25 -25 -23 -22 -20 -21 -21 -20 -20 -19 -20 -20 -20 -19 -18 -17 -17 -17 -17 -17 -17 -16 -16 -16 -17 -16 -16 -16 -16 -16 -17 -17 -17 -17 -17 -17 -17 -17 -17 -17 -17 -17 -18
-24 -25 -24 -23 -22 -21 -21 -21 -21 -20 -21 -22 -20 -20 -19 -18 -18 -17 -17 -17 -17 -17 -16 -16 -16 -17 -16 -17 -17 -17 -17 -17 -17 -17 -17 -17 -17 -17 -17 -17 -17 -18 -18 -18
-24 -25 -24 -23 -22 -21 -22 -22 -21 -20 -19 -21 -20 -19 -19 -19 -19 -18 -17 -17 -17 -17 -17 -17 -17 -16 -17 -17 -17 -17 -17 -17 -17 -17 -17 -17 -17 -17 -17 -17 -18 -18 -18 -18
-24 -24 -24 -23 -22 -21 -21 -21 -21 -20 -20 -20 -20 -20 -19 -19 -19 -19 -18 -17 -17 -17 -17 -17 -17 -17 -17 -17 -17 -17 -17 -17 -17 -17 -17 -17 -17 -17 -18 -18 -18 -18 -18 -18
Height
5737 5743 5750 5756 5763 5767 5776 5782 5785 5790 5793 5798 5803 5808 5812 5816 5819 5823 5825 5829 5832 5835 5838 5841 5843 5845 5847 5847 5848 5849 5850 5849 5849 5848 5848 5848 5848 5848 5847 5846 5845 5844 5843 5841
5727 5734 5741 5746 5752 5758 5764 5771 5774 5779 5782 5788 5794 5797 5802 5807 5811 5813 5815 5818 5822 5826 5829 5832 5835 5837 5839 5841 5842 5843 5843 5841 5841 5841 5841 5841 5841 5840 5839 5838 5838 5837 5836 5834
5717 5724 5730 5735 5741 5747 5753 5762 5767 5772 5775 5778 5783 5786 5791 5797 5800 5804 5807 5811 5815 5819 5821 5824 5826 5829 5831 5833 5835 5835 5834 5834 5834 5834 5833 5833 5833 5833 5832 5832 5830 5829 5829 5827
5706 5712 5716 5724 5731 5739 5744 5752 5757 5760 5765 5767 5770 5774 5781 5788 5792 5795 5799 5804 5808 5811 5813 5816 5818 5820 5822 5824 5826 5827 5827 5827 5828 5827 5827 5826 5826 5825 5825 5825 5824 5823 5822 5821
5699 5703 5707 5715 5725 5729 5737 5741 5747 5750 5750 5750 5756 5764 5769 5775 5778 5785 5793 5798 5801 5803 5805 5806 5808 5811 5812 5814 5816 5818 5819 5819 5820 5820 5821 5820 5820 5820 5820 5819 5818 5817 5816 5815
5692 5694 5698 5705 5713 5719 5724 5730 5735 5738 5739 5739 5750 5753 5756 5764 5773 5780 5783 5788 5793 5794 5794 5795 5798 5801 5803 5805 5808 5809 5810 5811 5812 5813 5813 5814 5814 5814 5814 5813 5811 5810 5808 5807
5685 5686 5690 5693 5702 5707 5709 5717 5720 5724 5726 5735 5743 5738 5752 5754 5761 5766 5772 5778 5781 5780 5781 5784 5789 5792 5795 5797 5799 5801 5802 5803 5804 5806 5807 5807 5807 5807 5806 5805 5803 5802 5801 5800
5675 5679 5682 5685 5691 5699 5702 5706 5708 5711 5716 5726 5721 5728 5738 5746 5751 5756 5763 5768 5768 5769 5772 5779 5782 5785 5787 5789 5791 5793 5794 5795 5796 5798 5799 5799 5799 5798 5798 5796 5795 5794 5794 5792
5666 5669 5674 5677 5681 5688 5691 5689 5709 5710 5713 5713 5718 5732 5732 5740 5745 5747 5752 5757 5761 5764 5769 5772 5774 5778 5780 5783 5785 5787 5788 5789 5790 5791 5791 5791 5791 5790 5790 5789 5788 5788 5787 5785
5656 5658 5663 5666 5670 5674 5679 5695 5689 5694 5698 5702 5710 5717 5724 5727 5738 5740 5742 5746 5751 5755 5760 5764 5767 5770 5773 5775 5777 5779 5781 5782 5783 5783 5784 5785 5785 5784 5784 5783 5782 5781 5780 5778
5645 5648 5654 5655 5659 5666 5671 5670 5676 5686 5692 5695 5704 5709 5718 5722 5729 5731 5734 5739 5743 5748 5753 5755 5756 5762 5765 5767 5769 5771 5773 5775 5776 5777 5778 5778 5778 5778 5777 5776 5775 5773 5771 5770
5635 5636 5641 5647 5650 5655 5658 5664 5671 5673 5683 5688 5692 5697 5704 5713 5718 5723 5727 5732 5736 5742 5744 5745 5750 5754 5757 5759 5761 5763 5765 5768 5769 5770 5771 5771 5771 5771 5770 5769 5767 5766 5764 5761
5623 5626 5631 5634 5640 5644 5647 5652 5659 5667 5673 5676 5683 5692 5698 5704 5709 5714 5720 5724 5730 5734 5735 5739 5743 5746 5749 5752 5754 5757 5759 5760 5762 5763 5764 5764 5764 5763 5762 5761 5759 5757 5755 5752
5612 5617 5621 5627 5635 5638 5641 5646 5651 5657 5660 5669 5671 5680 5686 5693 5700 5707 5713 5717 5721 5725 5729 5733 5735 5738 5741 5744 5747 5750 5751 5753 5754 5755 5756 5756 5755 5755 5753 5752 5750 5748 5746 5743
5602 5606 5611 5616 5623 5625 5630 5635 5641 5645 5654 5655 5669 5669 5675 5684 5691 5698 5704 5711 5716 5719 5722 5726 5728 5731 5733 5736 5739 5742 5744 5745 5746 5747 5747 5747 5746 5746 5744 5743 5742 5739 5737 5735
5590 5595 5598 5603 5610 5614 5617 5622 5629 5636 5643 5648 5653 5659 5668 5674 5678 5686 5696 5702 5707 5711 5714 5718 5721 5723 5725 5727 5731 5734 5736 5737 5738 5739 5739 5739 5738 5738 5736 5735 5733 5732 5729 5726
5578 5583 5585 5591 5599 5602 5601 5614 5620 5626 5633 5640 5642 5653 5656 5662 5670 5677 5685 5692 5698 5703 5708 5711 5714 5715 5714 5718 5724 5726 5727 5729 5730 5731 5731 5730 5730 5729 5728 5727 5725 5724 5720 5716
5565 5570 5573 5579 5584 5584 5599 5605 5614 5618 5625 5631 5635 5639 5646 5654 5661 5665 5671 5679 5686 5693 5698 5701 5703 5705 5707 5712 5716 5718 5720 5721 5722 5722 5722 5722 5722 5721 5720 5719 5718 5715 5711 5706
5552 5556 5562 5565 5571 5579 5583 5598 5605 5608 5615 5620 5624 5629 5637 5644 5647 5653 5663 5670 5676 5681 5687 5691 5694 5695 5698 5704 5708 5709 5711 5712 5713 5714 5715 5715 5715 5713 5713 5713 5710 5706 5702 5698
5535 5541 5545 5555 5556 5562 5583 5589 5596 5598 5596 5613 5616 5621 5628 5632 5635 5648 5656 5661 5665 5671 5675 5680 5685 5688 5692 5697 5699 5701 5703 5704 5706 5707 5708 5708 5707 5707 5706 5705 5701 5697 5693 5690
5516 5521 5525 5541 5544 5554 5565 5578 5583 5585 5601 5607 5610 5615 5619 5621 5631 5640 5643 5649 5654 5661 5667 5672 5675 5678 5684 5687 5690 5693 5695 5697 5699 5700 5700 5700 5700 5700 5699 5696 5692 5689 5686 5683
5501 5508 5515 5525 5531 5537 5559 5565 5572 5591 5593 5593 5596 5599 5603 5608 5613 5621 5630 5638 5644 5652 5657 5661 5663 5669 5676 5679 5681 5684 5687 5690 5691 5692 5693 5693 5693 5692 5690 5687 5684 5682 5679 5675
5486 5492 5498 5505 5518 5539 5539 5552 5562 5571 5575 5579 5583 5585 5589 5595 5602 5609 5618 5627 5634 5640 5645 5649 5654 5660 5665 5669 5672 5677 5680 5682 5683 5685 5685 5685 5685 5684 5681 5679 5677 5674 5671 5667
5464 5471 5477 5487 5511 5515 5525 5536 5545 5551 5553 5559 5569 5575 5579 5585 5590 5597 5605 5614 5622 5629 5634 5638 5643 5650 5655 5660 5664 5669 5671 5673 5675 5676 5676 5676 5676 5675 5673 5671 5669 5666 5662 5658
5450 5454 5469 5479 5498 5501 5511 5519 5528 5537 5544 5552 5557 5559 5565 5572 5579 5585 5593 5601 5609 5617 5622 5627 5634 5642 5647 5651 5656 5659 5662 5665 5666 5667 5667 5667 5667 5666 5664 5662 5660 5657 5653 5649
5439 5450 5445 5467 5480 5481 5493 5503 5513 5525 5533 5540 5547 5551 5553 5561 5568 5576 5582 5589 5597 5604 5610 5618 5626 5632 5637 5643 5647 5650 5653 5656 5657 5657 5657 5658 5658 5657 5656 5653 5651 5648 5644 5640
Wind_Speed
47 48 48 52 55 54 50 46 49 52 46 40 38 38 40 42 43 42 41 40 39 39 38 36 35 33 31 31 29 28 29 29 34 39 33 30 30 31 30 30 32 32 34 35
45 47 51 54 54 55 54 51 49 52 58 45 41 40 39 39 41 44 43 41 39 39 39 38 37 36 34 31 30 31 34 33 34 33 32 31 30 31 30 30 30 31 32 33
42 47 52 54 56 56 58 55 51 49 47 52 44 45 46 45 44 46 46 43 39 36 37 39 38 37 37 35 34 34 32 33 33 33 32 30 30 30 32 31 31 31 32 33
37 46 52 56 57 56 58 54 55 49 47 49 51 50 52 49 49 48 46 42 38 36 37 38 40 40 38 37 36 35 32 31 33 31 31 30 31 31 31 31 31 31 32 34
33 36 47 53 55 53 55 51 50 51 45 47 50 49 60 53 56 55 45 42 40 40 40 42 43 42 42 39 38 32 31 32 31 30 30 30 30 29 30 30 31 32 30 28
32 35 42 51 53 50 51 48 49 50 51 53 50 51 53 59 62 47 48 44 41 40 44 47 46 44 41 38 34 32 30 30 29 29 30 30 29 30 31 31 30 28 26 27
30 34 35 44 53 50 54 52 55 58 59 60 54 57 46 53 52 55 50 44 42 44 45 46 39 35 30 31 32 29 29 29 29 29 30 30 30 31 30 29 28 26 28 29
34 35 35 39 48 53 55 58 62 63 63 60 64 56 51 49 48 52 48 45 49 48 48 39 35 32 30 29 29 30 30 29 28 30 30 29 30 29 29 29 28 28 30 31
36 35 36 37 43 50 52 56 55 58 60 62 61 48 53 44 37 34 49 45 48 43 31 31 33 33 31 29 30 30 29 29 28 29 30 29 29 28 29 29 29 30 32 32
36 38 37 40 44 49 54 49 54 56 59 63 59 55 49 53 43 33 40 47 42 32 30 30 31 34 30 30 30 29 30 28 29 29 29 29 28 28 28 29 31 33 33 34
37 40 39 42 45 47 54 57 51 48 54 57 55 52 47 48 36 30 29 37 36 22 29 35 33 25 27 28 28 29 29 30 30 30 30 29 28 28 29 31 32 34 35 35
38 39 42 40 38 44 45 49 44 50 53 56 58 57 53 39 35 29 29 31 26 32 34 32 26 26 29 29 30 31 31 31 31 32 30 28 28 29 31 32 34 35 36 37
43 44 42 45 44 44 45 45 44 44 44 51 55 54 50 43 29 21 27 29 32 30 33 30 25 27 30 31 32 32 31 32 33 31 30 29 30 31 33 34 36 36 37 37
42 43 46 46 45 42 42 42 43 44 49 54 56 53 49 43 34 27 16 21 24 35 31 30 31 32 31 31 31 33 31 32 31 30 30 30 30 33 34 35 36 37 37 38
48 48 45 44 44 43 43 40 47 49 45 52 52 54 50 43 37 30 27 27 25 26 32 33 32 30 31 31 31 30 29 31 29 28 29 29 31 33 33 35 35 36 35 35
50 49 47 47 41 46 49 50 50 51 49 49 53 53 50 46 44 41 35 34 28 26 26 27 30 33 35 34 29 26 29 28 28 28 28 29 31 31 31 31 32 33 34 34
51 51 50 50 43 43 52 56 54 51 51 52 55 52 52 48 45 40 36 39 32 27 25 26 31 35 38 36 30 28 28 28 27 26 27 28 28 27 27 29 30 31 32 32
57 53 53 53 49 51 48 43 54 51 50 51 56 56 55 50 47 48 44 41 35 31 32 32 34 38 40 33 28 28 27 27 25 25 26 24 24 24 25 26 28 29 29 30
56 60 52 56 52 50 50 43 42 55 51 52 54 54 54 51 48 49 46 44 40 36 36 38 35 38 35 28 29 29 26 25 24 24 22 21 21 21 22 24 25 26 28 29
54 60 64 52 55 55 44 43 40 44 57 53 52 52 49 51 52 42 40 43 44 39 40 41 38 34 31 28 30 28 26 24 23 22 20 19 18 19 21 22 24 26 27 29
54 60 68 64 56 58 53 45 41 45 39 42 49 49 47 49 46 42 41 43 41 39 39 39 36 36 33 31 30 26 25 25 23 21 19 18 18 19 21 23 25 26 28 30
51 52 63 65 68 65 52 50 48 33 35 32 38 37 47 54 51 46 42 36 38 38 40 41 42 39 32 31 30 27 28 26 25 21 20 19 20 21 22 24 25 27 29 31
53 54 43 66 65 56 57 52 47 42 44 39 35 32 34 42 49 51 46 40 36 38 44 45 43 38 32 31 30 30 29 27 25 21 20 20 21 22 23 25 26 28 30 32
57 57 61 64 61 64 61 56 52 48 47 33 33 33 38 39 44 40 47 44 44 42 46 49 47 38 35 34 32 33 29 27 24 23 22 22 23 24 25 27 29 30 32 33
59 59 57 60 61 64 64 62 58 54 50 37 30 38 35 39 35 43 39 43 43 43 47 48 43 37 36 36 34 31 29 27 25 25 25 25 26 26 27 29 32 33 34 36
62 56 64 60 60 66 66 65 64 56 52 48 37 36 41 37 37 38 35 43 45 47 50 47 43 40 39 36 33 32 30 29 28 28 27 27 28 28 29 30 33 35 37 39
Wind_Direction
232 226 226 223 223 229 229 233 228 232 231 229 232 231 230 229 233 236 240 239 240 243 247 250 254 255 257 259 260 264 269 279 284 283 276 277 277 278 280 282 283 284 284 286
230 230 224 220 222 227 229 227 237 233 229 227 230 230 228 230 232 235 239 242 243 243 248 253 254 257 261 262 263 270 276 283 276 271 271 273 274 277 282 282 283 285 285 287
233 229 224 221 223 224 229 228 228 238 239 231 227 234 228 227 229 232 237 242 245 248 248 253 258 259 260 259 266 274 279 278 271 272 273 275 277 279 279 282 284 285 288 290
239 228 223 222 222 226 230 230 229 235 239 233 225 231 232 231 232 234 236 243 248 251 252 252 254 257 261 264 267 277 271 266 268 268 270 273 274 276 280 280 281 284 285 287
242 235 230 222 223 227 230 230 232 240 242 226 229 235 228 233 233 236 238 242 247 251 254 253 254 258 263 265 271 264 259 262 263 267 269 270 272 274 275 278 279 278 278 281
246 241 231 224 219 224 229 224 226 231 235 236 240 235 238 234 237 239 239 240 244 250 252 255 258 260 261 262 257 257 262 263 265 268 269 269 270 272 274 274 273 276 283 288
247 246 237 230 221 222 223 222 222 226 229 236 240 238 245 236 240 235 234 233 234 237 243 246 250 253 255 252 253 258 260 261 264 265 265 267 272 275 274 273 278 284 288 292
246 241 239 233 227 225 229 228 224 224 228 230 236 238 243 244 246 241 236 231 231 233 241 248 249 250 246 251 257 260 260 262 264 265 268 273 276 275 277 282 285 288 292 296
245 240 237 231 226 225 226 227 232 235 238 242 244 243 247 248 247 249 238 228 228 240 246 244 241 243 248 253 255 256 257 259 262 266 271 273 274 278 282 284 285 290 292 294
243 241 234 231 227 222 229 231 233 230 235 239 239 237 244 249 248 243 238 231 224 229 235 243 244 244 251 251 251 255 256 257 262 265 267 268 270 275 279 280 281 284 289 291
242 239 231 230 228 226 225 230 229 234 238 244 242 239 244 254 245 226 229 229 236 230 239 243 246 245 247 251 251 252 255 258 260 261 260 261 266 274 279 283 287 289 291 292
238 242 236 230 228 228 229 231 244 241 238 237 237 233 243 247 236 222 222 222 231 230 242 242 247 249 253 252 253 254 253 256 258 256 256 262 269 277 284 287 288 289 289 289
234 236 239 230 227 226 229 230 237 231 232 235 242 237 243 245 230 219 227 225 227 233 235 240 245 246 247 250 249 249 251 253 253 254 259 266 273 280 282 285 286 288 290 292
237 238 237 236 234 231 231 231 237 237 232 232 233 239 241 240 239 241 229 208 227 233 236 238 240 245 247 246 245 245 247 249 252 256 263 270 277 279 283 285 288 290 292 293
235 237 238 234 237 225 223 225 231 233 233 232 231 237 239 237 239 236 232 223 222 229 232 230 237 246 243 244 241 240 244 248 253 259 267 274 278 281 284 287 289 292 293 296
232 234 235 237 235 235 223 218 224 226 228 235 235 233 237 238 237 233 230 224 237 232 225 229 237 240 241 242 242 243 246 251 256 264 270 275 278 282 285 289 292 294 296 298
235 232 234 235 232 238 235 228 226 224 228 230 235 233 234 231 232 232 224 230 226 224 227 225 233 237 241 244 245 244 247 253 259 265 271 274 278 284 289 293 294 295 298 301
233 235 235 234 235 232 233 231 228 230 227 232 235 236 238 237 232 232 226 223 225 222 219 226 231 238 242 245 242 243 248 254 258 266 268 275 281 286 291 293 294 297 301 305
229 229 232 238 236 236 233 228 230 229 228 229 237 237 236 240 240 235 225 215 221 223 225 227 232 236 239 237 238 242 247 252 259 261 267 273 279 287 291 293 297 302 306 310
228 228 228 230 239 236 232 231 227 234 234 227 232 237 238 239 241 235 229 220 230 229 227 226 231 237 239 235 236 241 243 249 251 257 261 268 278 284 289 295 301 306 311 312
229 227 229 226 231 234 232 229 232 235 226 232 238 242 242 242 244 244 243 237 235 233 230 230 232 237 234 232 235 237 241 243 247 251 257 265 275 283 292 300 307 312 314 314
231 230 229 230 229 233 230 232 232 233 238 237 237 238 242 239 239 239 240 239 238 232 229 230 230 233 232 230 232 234 237 240 244 249 256 265 273 283 292 303 309 312 314 314
231 225 223 229 231 231 231 233 234 230 234 240 241 235 237 236 239 239 237 231 230 227 223 226 229 233 231 229 230 233 235 239 243 250 259 268 277 286 295 303 307 310 314 316
235 230 226 229 229 228 229 229 230 229 233 242 235 233 233 234 235 235 230 229 224 223 222 225 226 224 223 226 227 231 234 238 245 253 263 273 281 289 298 301 305 308 313 316
232 235 234 232 231 230 228 228 227 225 227 225 223 221 230 226 227 230 227 222 218 218 222 225 227 224 222 223 226 229 234 240 248 257 266 274 281 288 296 301 303 306 310 313
234 235 236 232 229 231 229 227 228 221 224 225 217 218 219 219 221 225 219 214 214 214 218 221 221 220 220 223 226 230 236 243 253 261 268 275 281 286 293 299 302 304 307 310